Regional Weather Roundup
Issued by NWS

Home | Current Version | Previous Version | Graphics & Text | Print | Product List | Glossary On
Versions: 1 2 3 4 5 6 7 8 9 10 11 12 13 14 15 16 17 18 19 20 21 22 23 24 25 26 27 28 29 30 31 32 33 34 35 36 37 38 39 40 41 42 43 44 45 46 47 48 49 50
000
ASUS43 KMPX 240810
RWRMN
WEATHER ROUNDUP FOR MINNESOTA
NATIONAL WEATHER SERVICE TWIN CITIES/CHANHASSEN MN
300 AM CDT SAT SEP 24 2016


NOTE: "FAIR" INDICATES FEW OR NO CLOUDS BELOW 12,000 FEET WITH NO
SIGNIFICANT WEATHER AND/OR OBSTRUCTIONS TO VISIBILITY. N/A MEANS
CURRENT SKY AND/OR WEATHER CONDITIONS ARE NOT AVAILABLE.

MNZ060>063-068>070-240900-
   Twin Cities Metro

CITY           SKY/WX    TMP DP  RH WIND       PRES   REMARKS
TWIN CITIES    CLOUDY    65  60  84 SE10      30.10R
ST PAUL        CLOUDY    64  61  90 SE8       30.10S
CRYSTAL        CLOUDY    65  59  81 SE9       30.08R
BLAINE         CLOUDY    64  63  94 SE7       30.10S
LAKEVILLE      CLOUDY    63  63 100 SE7       30.09S
EDEN PRAIRIE   CLOUDY    66  61  84 E8        30.08R
LAKEVILLE      CLOUDY    63  63 100 SE7       30.09S
SOUTH ST PAUL  CLOUDY    65  62  90 SE3       30.10S
LAKE ELMO      CLOUDY    63  61  94 E6        30.12S
$$
MNZ001>005-007-008-013>017-022>024-027-028-240900-
   Northwest Minnesota

CITY           SKY/WX    TMP DP  RH WIND       PRES   REMARKS
BEMIDJI        CLOUDY    58  54  87 SE12      30.05F
HALLOCK        RAIN      55  55 100 SE16      29.99F
ROSEAU         CLOUDY    54  48  82 E7        30.06R
WARROAD        RAIN      54  48  82 E12       30.08S
THIEF RVR FALL CLOUDY    57  53  86 E10       30.01S
CROOKSTON      CLOUDY    61  57  88 SE8       29.99S
FOSSTON        CLOUDY    57  55  94 SE9G18    30.01R
DETROIT LAKES  CLOUDY    59  59 100 SE13G20   30.01S FOG
MOORHEAD       CLOUDY    64  61  88 SE14G24   29.94F
PARK RAPIDS    CLOUDY    58  55  90 SE9       30.05S FOG
MAHNOMEN       CLOUDY    60  57  92 SE10G24   29.98S
$$
MNZ006-009>011-018-025>026-240900-
   North Central Minnesota

CITY           SKY/WX    TMP DP  RH WIND       PRES   REMARKS
BAUDETTE       CLOUDY    52  50  93 SE14      30.10F
FLAG ISLAND    DRIZZLE   55  52  88 SE8       30.09S
INTL FALLS     CLOUDY    54  48  80 SE9       30.16R
WASKISH        CLOUDY    54  52  94 E10       30.08F
BIG FORK       CLOUDY    55  52  88 E5        30.13F
COOK           MOCLDY    54  52  94 E3        30.17S
WALKER         CLOUDY    58  55  88 SE7       30.07S
$$
MNZ012-019>021-037-240900-
   Northeast Minnesota

CITY           SKY/WX    TMP DP  RH WIND       PRES   REMARKS
DULUTH         CLOUDY    57  53  86 E12       30.17S
ELY            LGT RAIN  54  48  82 E9        30.17F
HIBBING        CLOUDY    55  51  86 SE8       30.16R
EVELETH        CLOUDY    57  53  84 E5        30.18S
DULUTH HARBOR  CLOUDY    57  55  94 E13       30.18S
TWO HARBORS    CLOUDY    61  55  82 NE6       30.18S
SILVER BAY     CLOUDY    57  54  88 NE7       30.20R
GRAND MARAIS     N/A     59  53  80 E7        30.24S
G MARAIS ARPRT MOCLDY    52  45  76 E5        30.26S
$$
MNZ029>031-032-039>041-046>048-054>057-064-240900-
   West Central Minnesota

CITY           SKY/WX    TMP DP  RH WIND       PRES   REMARKS
FERGUS FALLS   CLOUDY    63  63 100 SE14      30.00F FOG
MORRIS         CLOUDY    64  64 100 SE14G25   29.98S FOG
ALEXANDRIA     CLOUDY    62  62 100 SE15      30.05S FOG
ELBOW LAKE     CLOUDY    63  63 100 SE14      29.99F
GLENWOOD       CLOUDY    63  61  94 E12       30.04F FOG
BENSON         CLOUDY    64  63  94 SE9       30.01S FOG
ORTONVILLE     CLOUDY    66  64  94 SE14G20   29.95F FOG
MADISON          N/A     70  70 100 E14       29.96S FOG
WILLMAR        CLOUDY    64  64 100 SE12      30.04F FOG
$$
MNZ033>034-036-042>043-049>051-058-059-240900-
   Central Minnesota

CITY           SKY/WX    TMP DP  RH WIND       PRES   REMARKS
ST CLOUD       CLOUDY    62  62 100 SE7       30.08R
SAUK CENTRE    CLOUDY    61  61  99 SE9G17    30.06S FOG
PAYNESVILLE    LGT RAIN  62  62 100 SE10      30.06S
AITKIN         CLOUDY    61  54  77 E8        30.10S
PINE RIVER     CLOUDY    57  55  94 SE8       30.11S
BRAINERD       CLOUDY    60  58  92 SE10      30.09F FOG
STAPLES        CLOUDY    57  57 100 SE8       30.06S FOG
LONG PRAIRIE   CLOUDY    61  59  94 E8        30.07S FOG
LITTLE FALLS   CLOUDY    61  59  94 SE8       30.08S FOG
LITCHFIELD     CLOUDY    64  64 100 SE8       30.07R FOG
BUFFALO        CLOUDY    64  60  88 SE8       30.09S
MAPLE LAKE     CLOUDY    64  63  94 SE6       30.08S
HUTCHINSON     CLOUDY    65  64  97 E7        30.07S FOG
$$
MNZ037-044-045-052-053-240900-
   East Central Minnesota

CITY           SKY/WX    TMP DP  RH WIND       PRES   REMARKS
PRINCETON      CLOUDY    63  61  94 E7        30.10R
MORA           CLOUDY    59  55  88 SE6       30.13S
CAMBRIDGE      CLOUDY    64  57  77 SE6       30.09S
MOOSE LAKE     CLOUDY    57  54  88 E5        30.13S
HINCKLEY       CLOUDY    61  59  94 E7        30.13S
CLOQUET        CLOUDY    57  52  82 E8        30.16S
MCGREGOR       CLOUDY    57  54  88 SE7       30.13F
$$
MNZ071>073-080-081-089-090-097-098-240900-
   Southwest Minnesota

CITY           SKY/WX    TMP DP  RH WIND       PRES   REMARKS
MONTEVIDEO     CLOUDY    66  66 100 S16G22    30.01S
GRANITE FALLS  CLOUDY    68  67  97 E10G17    30.01S FOG
CANBY          CLOUDY    67  66  95 E8        29.97S FOG
REDWOOD FALLS  CLOUDY    66  65  96 SE10      30.01S FOG
OLIVIA         CLOUDY    64  63  94 SE10      30.02S FOG
PIPESTONE      CLEAR     70  66  88 S10       29.97S
WINDOM         CLOUDY    70  66  88 SE13G18   30.01F
WORTHINGTON    CLOUDY    68  67  96 SE9G16    30.01R FOG
JACKSON        CLOUDY    70  64  83 SE14G20   30.03S HAZE
TRACY          CLOUDY    70  68  94 S9        29.99S
$$
MNZ065>067-074>077-082>085-091>093-240900-
   South Central Minnesota

CITY           SKY/WX    TMP DP  RH WIND       PRES   REMARKS
MANKATO        CLOUDY    66  64  93 SE10      30.06S
ST JAMES       CLOUDY    66  66 100 SE9       30.04S FOG
FAIRMONT       CLOUDY    68  66  93 SE14      30.03F FOG
GLENCOE        CLOUDY    65  65  98 E8        30.07S
FARIBAULT      CLOUDY    66  63  88 SE8       30.09S
OWATONNA       MOCLDY    66  63  88 SE14      30.08S
WASECA         CLOUDY    64  61  88 SE9G16    30.09S
ALBERT LEA     CLOUDY    64  63  94 SE10G17   30.09S
$$
MNZ078>079-086>088-094>096-240900-
   Southeast Minnesota

CITY           SKY/WX    TMP DP  RH WIND       PRES   REMARKS
ROCHESTER      CLOUDY    63  61  93 SE13      30.12S
RED WING       CLOUDY    66  59  77 SE14      30.10S
DODGE CENTER   CLOUDY    63  61  94 SE13      30.11S
WINONA         CLOUDY    63  57  82 SE8       30.13F
AUSTIN         CLOUDY    63  61  94 SE7       30.10S
PRESTON        CLOUDY    62  59  90 SE9       30.13F
$$
ABBREVIATIONS USED IN REMARKS
   TC - TEMPERATURES IN CELSIUS
  WCI - WIND CHILL INDEX
   HX - HEAT INDEX
  VSB - VISIBILITY
$$




USA.gov is the U.S. government's official web portal to all federal, state and local government web resources and services.